ORBCOMM-X 1 21576U 91050C 26038.17373550 .00000434 00000+0 14109-3 0 9994 2 21576 98.3133 104.6463 0003598 177.0551 183.0661 14.43493285816019 ORBCOMM FM01 1 23545U 95017A 26037.67513409 .00011626 00000+0 10919-2 0 9991 2 23545 69.9608 207.7806 0006123 296.0726 63.9800 14.94108444647487 ORBCOMM FM02 1 23546U 95017B 26037.88524106 .00013256 00000+0 11842-2 0 9998 2 23546 69.9612 225.5051 0007281 299.5317 60.5114 14.96026889647196 ORBCOMM FM08 1 25112U 97084A 26038.17628436 .00002314 00000+0 67129-3 0 9992 2 25112 45.0141 318.9691 0007414 357.7534 2.3284 14.46865232475393 ORBCOMM FM10 1 25113U 97084B 26038.12642739 .00002216 00000+0 64816-3 0 9991 2 25113 45.0154 322.0395 0006010 327.4416 32.6064 14.46594563650527 ORBCOMM FM11 1 25114U 97084C 26038.17245350 .00002199 00000+0 64688-3 0 9992 2 25114 45.0142 322.8873 0006837 328.8060 31.2385 14.46333211475483 ORBCOMM FM12 1 25115U 97084D 26038.13150990 .00002191 00000+0 64436-3 0 9997 2 25115 45.0148 322.8087 0005903 326.8615 33.1867 14.46360764475270 ORBCOMM FM09 1 25116U 97084E 26038.11804382 .00002176 00000+0 64243-3 0 9996 2 25116 45.0153 324.0751 0007064 316.0589 43.9700 14.46189733475472 ORBCOMM FM05 1 25117U 97084F 26038.12393641 .00002110 00000+0 61425-3 0 9996 2 25117 45.0149 319.2105 0003503 330.9376 29.1281 14.46973429474629 ORBCOMM FM06 1 25118U 97084G 26038.18866199 .00002408 00000+0 69288-3 0 9991 2 25118 45.0143 318.3468 0002377 333.0738 174.7567 14.47149790475554 ORBCOMM FM07 1 25119U 97084H 26038.17221606 .00002114 00000+0 61296-3 0 9994 2 25119 45.0137 319.1684 0004282 326.6556 33.4026 14.47153762475544 ORBCOMM FM03 1 25158U 98007B 26038.14722432 .00001419 00000+0 53531-3 0 9993 2 25158 107.9662 258.4931 0044926 200.0176 159.9202 14.35232759457743 ORBCOMM FM04 1 25159U 98007C 26038.16120648 .00001400 00000+0 52742-3 0 9990 2 25159 107.9649 261.9023 0040642 197.4519 162.5226 14.35463179457930 ORBCOMM FM17 1 25413U 98046A 26038.02563234 .00001064 00000+0 41382-3 0 9997 2 25413 44.9926 228.8142 0002068 314.5756 45.4922 14.35680517436914 ORBCOMM FM18 1 25414U 98046B 26037.32769032 .00001979 00000+0 67618-3 0 9999 2 25414 44.9914 143.0842 0002829 12.0372 348.0544 14.39355435437977 ORBCOMM FM19 1 25415U 98046C 26037.31067297 .00001967 00000+0 67463-3 0 9998 2 25415 44.9927 145.5197 0001770 353.7807 37.8597 14.39177834437925 ORBCOMM FM20 1 25416U 98046D 26037.32918171 .00001503 00000+0 54095-3 0 9999 2 25416 44.9934 151.9470 0000799 205.9265 154.1544 14.37821732437954 ORBCOMM FM16 1 25417U 98046E 26038.14231044 .00001994 00000+0 67560-3 0 9993 2 25417 44.9921 136.3990 0002443 42.8220 317.2819 14.39744282438103 ORBCOMM FM15 1 25418U 98046F 26037.27596418 .00001838 00000+0 63093-3 0 9990 2 25418 44.9954 146.3834 0002242 39.9273 320.1740 14.39362775437962 ORBCOMM FM14 1 25419U 98046G 26037.29911832 .00001823 00000+0 62098-3 0 9992 2 25419 44.9940 143.7789 0001024 22.8004 337.2890 14.39794718437947 ORBCOMM FM13 1 25420U 98046H 26036.72602576 .00001854 00000+0 64904-3 0 9995 2 25420 44.9963 156.8931 0003526 5.7264 354.3624 14.38366493436853 ORBCOMM FM21 1 25475U 98053A 26038.04304740 .00001133 00000+0 41813-3 0 9996 2 25475 45.0066 236.8204 0001137 346.2068 13.8749 14.37944932431042 ORBCOMM FM22 1 25476U 98053B 26038.03597766 .00001421 00000+0 50026-3 0 9994 2 25476 45.0057 229.6684 0002615 331.8107 28.2600 14.39156637431091 ORBCOMM FM23 1 25477U 98053C 26038.07796313 .00001178 00000+0 43066-3 0 9993 2 25477 45.0067 238.3875 0002048 330.7280 29.3453 14.38200901431206 ORBCOMM FM24 1 25478U 98053D 26038.05713406 .00001416 00000+0 50209-3 0 9996 2 25478 45.0061 234.8778 0001766 341.7125 18.3660 14.38837591431265 ORBCOMM FM25 1 25479U 98053E 26037.96397133 .00001287 00000+0 46065-3 0 9992 2 25479 45.0054 233.6281 0004097 349.2831 10.7930 14.38805130431542 ORBCOMM FM26 1 25480U 98053F 26037.51216386 .00001034 00000+0 38736-3 0 9991 2 25480 45.0052 234.0102 0006066 2.2260 357.8615 14.37746890431360 ORBCOMM FM27 1 25481U 98053G 26038.01558958 .00001402 00000+0 49728-3 0 9994 2 25481 45.0038 233.4930 0000576 36.3438 323.7450 14.38845751431481 ORBCOMM FM28 1 25482U 98053H 26037.40363698 .00001577 00000+0 55242-3 0 9993 2 25482 45.0039 173.6244 0003296 44.3903 315.7210 14.38952240432088 ORBCOMM FM30 1 25980U 99065A 26038.17026969 .00001281 00000+0 46704-3 0 9997 2 25980 45.0319 56.9640 0004251 114.7165 245.4127 14.37913896368266 ORBCOMM FM31 1 25981U 99065B 26038.15479343 .00001298 00000+0 47330-3 0 9998 2 25981 45.0233 50.4824 0002539 166.2704 193.8213 14.37836899367812 ORBCOMM FM32 1 25982U 99065C 26038.14748498 .00001231 00000+0 45965-3 0 9997 2 25982 45.0157 68.6622 0004678 146.4403 213.6742 14.36900900368382 ORBCOMM FM33 1 25983U 99065D 26038.16110782 .00001349 00000+0 46258-3 0 9995 2 25983 45.0298 321.2480 0006877 168.3448 191.7562 14.40717399369946 ORBCOMM FM36 1 25984U 99065E 26038.14976262 .00001586 00000+0 55612-3 0 9994 2 25984 45.0394 56.7777 0002257 351.9406 8.1406 14.38895048368251 ORBCOMM FM35 1 25985U 99065F 26038.16475637 .00001200 00000+0 44164-3 0 9990 2 25985 45.0395 63.6695 0002646 169.8109 190.2794 14.37795169368599 ORBCOMM FM34 1 25986U 99065G 26038.13381844 .00001188 00000+0 43844-3 0 9993 2 25986 45.0392 64.3090 0001599 77.3032 282.7995 14.37718580368703 ORBCOMM FM38 1 33060U 08031A 26038.06165195 .00002453 00000+0 32812-3 0 9998 2 33060 48.4386 274.9331 0004681 330.6014 29.4638 14.82588809949582 ORBCOMM FM41 1 33061U 08031B 26038.09491729 .00002526 00000+0 34076-3 0 9992 2 33061 48.4425 283.3961 0004063 313.9485 198.6683 14.82128763949061 ORBCOMM FM29 1 33062U 08031C 26038.12733365 .00002818 00000+0 37548-3 0 9993 2 33062 48.4381 290.7196 0005702 315.1110 203.1380 14.82298130948987 ORBCOMM FM39 1 33063U 08031D 26038.16654851 .00002430 00000+0 33994-3 0 9991 2 33063 48.4404 317.5016 0006820 286.7034 73.3132 14.80696548948607 ORBCOMM FM37 1 33064U 08031E 26038.13331522 .00002298 00000+0 32155-3 0 9996 2 33064 48.4395 305.8167 0005315 305.0024 209.6787 14.80889375948855 ORBCOMM FM40 1 33065U 08031F 26038.13663650 .00002995 00000+0 38642-3 0 9998 2 33065 48.4405 285.6447 0006128 321.4030 196.3851 14.83491162949026 VESSELSAT 1 1 37840U 11058C 26037.32727581 .00000412 00000+0 80104-4 0 9993 2 37840 19.9615 117.0369 0013460 242.2315 117.6725 14.11413320739429 ORBCOMM FM109 1 40086U 14040A 26038.17049986 .00001067 00000+0 26288-3 0 9992 2 40086 47.0050 346.1200 0002218 326.0329 34.0415 14.58673118615362 ORBCOMM FM107 1 40087U 14040B 26038.11832751 .00001208 00000+0 29231-3 0 9995 2 40087 47.0066 347.2315 0001808 282.5101 77.5582 14.58751741615431 ORBCOMM FM106 1 40088U 14040C 26036.73390101 .00001840 00000+0 33288-3 0 9999 2 40088 47.0594 156.9600 0015558 72.4869 287.7721 14.70220124617830 ORBCOMM FM111 1 40089U 14040D 26038.15847112 .00004325 00000+0 48392-3 0 9990 2 40089 47.0015 327.6714 0029042 239.7312 120.0711 14.88156218625205 ORBCOMM FM104 1 40090U 14040E 26038.16095671 .00000895 00000+0 23391-3 0 9998 2 40090 47.0062 23.4880 0016296 202.3980 157.6196 14.57118808614882 ORBCOMM FM103 1 40091U 14040F 26038.17258083 .00001046 00000+0 25864-3 0 9994 2 40091 47.0069 347.6733 0002440 281.7331 78.3280 14.58657944598407 ORBCOMM FM114 1 41179U 15081A 26037.98302279 .00000771 00000+0 20007-3 0 9991 2 41179 47.0038 257.5162 0002508 316.1555 43.9131 14.58676471538742 ORBCOMM FM119 1 41180U 15081B 26037.36465299 .00001007 00000+0 25041-3 0 9993 2 41180 46.9993 169.7955 0000484 354.0994 5.9885 14.58618664539908 ORBCOMM FM105 1 41181U 15081C 26037.42967551 .00000408 00000+0 15922-3 0 9990 2 41181 46.9998 197.3754 0002131 281.3432 78.7209 14.45465761534635 ORBCOMM FM110 1 41182U 15081D 26038.04067343 .00000941 00000+0 23617-3 0 9992 2 41182 47.0010 256.7229 0002889 202.2226 157.8535 14.58667245538622 ORBCOMM FM118 1 41183U 15081E 26038.00671059 .00000890 00000+0 22528-3 0 9997 2 41183 47.0031 257.1920 0002708 161.1006 198.9981 14.58669853538727 ORBCOMM FM112 1 41184U 15081F 26037.39327552 .00001291 00000+0 31057-3 0 9998 2 41184 46.9981 168.6044 0002049 302.5258 57.5430 14.58665834539850 ORBCOMM FM113 1 41185U 15081G 26037.37052976 .00001342 00000+0 32126-3 0 9997 2 41185 46.9995 169.0755 0001686 305.5195 54.5533 14.58669811539837 ORBCOMM FM115 1 41186U 15081H 26038.15414657 .00001230 00000+0 27133-3 0 9991 2 41186 47.0000 1.6061 0000639 357.9435 2.1449 14.63058597542178 ORBCOMM FM108 1 41187U 15081J 26038.15519617 .00001319 00000+0 31638-3 0 9997 2 41187 47.0048 76.8956 0003337 303.2456 56.8110 14.58675133541099 ORBCOMM FM117 1 41188U 15081K 26038.12060081 .00001285 00000+0 30927-3 0 9993 2 41188 47.0012 75.7349 0003623 310.7779 49.2792 14.58668382541139 ORBCOMM FM116 1 41189U 15081L 26037.34782617 .00000975 00000+0 24346-3 0 9996 2 41189 47.0014 169.1676 0002043 196.9741 163.1077 14.58647487539830